Doha, Qatar

2:30 AM AST on February 10, 2016 (GMT +0300)
Doha

Weather History for 41170 - November, 2013

Change the Weather History Date:

Thursday, November 14, 2013

  Actual Average Record
Temperature  
Mean Temperature 81 °F -  
Max Temperature 87 °F 80 °F - ()
Min Temperature 75 °F 63 °F - ()
Cooling Degree Days 16    
Growing Degree Days 31 (Base 50)    
Moisture  
Dew Point 65 °F    
Average Humidity 56    
Maximum Humidity 65    
Minimum Humidity 29    
Precipitation  
Precipitation 0.00 in 0.01 in - ()
Sea Level Pressure  
Sea Level Pressure 29.90 in    
Wind  
Wind Speed 5 mph ()    
Max Wind Speed 14 mph    
Max Gust Speed -    
Visibility 6.4 miles    
Events      
T = Trace of Precipitation, MM = Missing Value Source: Averaged Metar Reports

Daily Weather History Graph

Daily Weather History Graph

Search for Another Location

Airport or City:

Trip Planner

Search our weather history database for the weather conditions in past years. The results will help you decide how hot, cold, wet, or windy it might be!

Date:

Astronomy

Nov. 14, 2013 Rise Set
Actual Time 5:49 AM AST 4:46 PM AST
Civil Twilight 5:25 AM AST 5:10 PM AST
Nautical Twilight 4:58 AM AST 5:37 PM AST
Astronomical Twilight 4:30 AM AST 6:05 PM AST
Moon 2:37 PM AST (11/14) 2:39 AM AST (11/14)
Length of Visible Light 11h 44m
Length of Day
10h 56m
Waxing Gibbous, 89% of the Moon is Illuminated
Nov 14
Waxing Gibbous
Nov 17
Full
Nov 25
Last Quarter
Dec 3
New
Dec 9
First Quarter

Hourly Weather History & Observations

Time (AST) Temp. Heat Index Dew Point Humidity Pressure Visibility Wind Dir Wind Speed Gust Speed Precip Events Conditions
12:00 AM 79 °F - 64 °F 51% 29.91 in 7 mi ESE 6.9 mph - -  
12:00 AM 78.8 °F - 64.4 °F 61% 29.89 in - ESE 6.9 mph - N/A   Clear
1:00 AM 78.8 °F - 64.4 °F 61% 29.89 in - SSE 4.6 mph - N/A   Clear
2:00 AM 78.8 °F - 64.4 °F 61% 29.89 in - SE 5.8 mph - N/A   Clear
3:00 AM 78 °F - 65 °F 56% 29.88 in 9 mi ESE 4.6 mph - -   Scattered Clouds
3:00 AM 78.8 °F - 64.4 °F 61% 29.86 in - ESE 4.6 mph - N/A   Clear
3:30 AM 77.0 °F - 64.4 °F 65% 29.86 in - SE 4.6 mph - N/A   Clear
4:00 AM 77.0 °F - 64.4 °F 65% 29.89 in - SE 3.5 mph - N/A   Clear
4:30 AM 77.0 °F - 64.4 °F 65% 29.89 in - SSE 3.5 mph - N/A   Clear
5:00 AM 77.0 °F - 64.4 °F 65% 29.89 in - SSE 3.5 mph - N/A   Clear
6:00 AM 78 °F - 65 °F 56% 29.91 in 7 mi 2.3 mph - -   Scattered Clouds
6:00 AM 78.8 °F - 64.4 °F 61% 29.89 in - Variable 2.3 mph - N/A   Clear
7:00 AM 80.6 °F 82.7 °F 66.2 °F 61% 29.92 in 6.2 mi Variable 2.3 mph - N/A   Partly Cloudy
7:30 AM 80.6 °F 82.7 °F 66.2 °F 61% 29.92 in 6.2 mi Variable 2.3 mph - N/A   Partly Cloudy
8:00 AM 82.4 °F 84.6 °F 66.2 °F 58% 29.95 in 6.2 mi South 3.5 mph - N/A   Partly Cloudy
8:30 AM 82.4 °F 84.6 °F 66.2 °F 58% 29.95 in 6.2 mi SSE 5.8 mph - N/A   Partly Cloudy
9:00 AM 84 °F - 65 °F 43% 29.96 in 7 mi SSE 5.8 mph - -   Scattered Clouds
9:00 AM 84.2 °F 85.6 °F 64.4 °F 51% 29.95 in 6.2 mi SSE 5.8 mph - N/A   Partly Cloudy
9:30 AM 86.0 °F 86.6 °F 62.6 °F 45% 29.95 in 6.2 mi SSE 8.1 mph - N/A   Partly Cloudy
10:00 AM 86.0 °F 88.2 °F 66.2 °F 51% 29.95 in 6.2 mi South 8.1 mph - N/A   Partly Cloudy
10:30 AM 86.0 °F 87.3 °F 64.4 °F 48% 29.95 in 6.2 mi South 6.9 mph - N/A   Partly Cloudy
11:00 AM 87.8 °F 88.5 °F 62.6 °F 43% 29.92 in 6.2 mi SSW 5.8 mph - N/A   Scattered Clouds
11:30 AM 84.2 °F 88.4 °F 69.8 °F 62% 29.89 in 6.2 mi SE 11.5 mph - N/A   Scattered Clouds
12:00 PM 85 °F - 69 °F 49% 29.91 in 7 mi SE 10.4 mph - -   Scattered Clouds
12:00 PM 84.2 °F 87.3 °F 68.0 °F 58% 29.89 in 6.2 mi SE 10.4 mph - N/A   Mostly Cloudy
12:30 PM 84.2 °F 87.3 °F 68.0 °F 58% 29.89 in 6.2 mi SE 12.7 mph - N/A   Mostly Cloudy
1:00 PM 84.2 °F 87.3 °F 68.0 °F 58% 29.89 in 6.2 mi SE 12.7 mph - N/A   Mostly Cloudy
1:30 PM 84.2 °F 87.3 °F 68.0 °F 58% 29.86 in 6.2 mi SE 13.8 mph - N/A   Scattered Clouds
2:00 PM 84.2 °F 86.6 °F 66.2 °F 55% 29.86 in 6.2 mi SE 12.7 mph - N/A   Scattered Clouds
2:30 PM 84.2 °F 85.6 °F 64.4 °F 51% 29.86 in 6.2 mi SSE 9.2 mph - N/A   Scattered Clouds
3:00 PM 84 °F - 68 °F 50% 29.87 in 6 mi SSE 9.2 mph - -   Scattered Clouds
3:00 PM 102.2 °F 105.5 °F 64.4 °F 29% 29.86 in 6.2 mi SSE 9.2 mph - N/A   Scattered Clouds
3:30 PM 84.2 °F 83.8 °F 59.0 °F 42% 29.86 in 6.2 mi SSE 8.1 mph - N/A   Scattered Clouds
4:00 PM 84.2 °F 85.0 °F 62.6 °F 48% 29.86 in 6.2 mi SSE 6.9 mph - N/A   Scattered Clouds
4:30 PM 84.2 °F 84.4 °F 60.8 °F 45% 29.86 in 6.2 mi SSE 5.8 mph - N/A   Scattered Clouds
5:00 PM 82.4 °F 83.4 °F 62.6 °F 51% 29.89 in 6.2 mi South 4.6 mph - N/A   Partly Cloudy
5:30 PM 82.4 °F 83.9 °F 64.4 °F 54% 29.89 in 6.2 mi South 3.5 mph - N/A   Partly Cloudy
6:00 PM 81 °F - 63 °F 45% 29.91 in 6 mi 2.3 mph - -   Scattered Clouds
6:00 PM 80.6 °F 81.8 °F 62.6 °F 54% 29.89 in - Variable 2.3 mph - N/A   Clear
6:30 PM 80.6 °F 82.3 °F 64.4 °F 58% 29.89 in - South 3.5 mph - N/A   Clear
7:00 PM 80.6 °F 82.7 °F 66.2 °F 61% 29.92 in - South 3.5 mph - N/A   Clear
7:30 PM 80.6 °F 82.7 °F 66.2 °F 61% 29.92 in - SE 3.5 mph - N/A   Clear
8:00 PM 78.8 °F - 66.2 °F 65% 29.92 in - Variable 2.3 mph - N/A   Clear
8:30 PM 78.8 °F - 66.2 °F 65% 29.92 in - SSE 4.6 mph - N/A   Clear
9:00 PM 79 °F - 67 °F 58% 29.93 in 7 mi SE 4.6 mph - -  
9:00 PM 78.8 °F - 66.2 °F 65% 29.92 in - SE 4.6 mph - N/A   Clear
9:30 PM 80.6 °F 82.3 °F 64.4 °F 58% 29.92 in - SSE 3.5 mph - N/A   Clear
10:00 PM 80.6 °F 82.7 °F 66.2 °F 61% 29.92 in - SSW 3.5 mph - N/A   Clear
10:30 PM 78.8 °F - 66.2 °F 65% 29.92 in - SSW 3.5 mph - N/A   Clear
11:00 PM 78.8 °F - 66.2 °F 65% 29.92 in - Variable 2.3 mph - N/A   Clear
11:30 PM 78.8 °F - 66.2 °F 65% 29.92 in - SW 3.5 mph - N/A   Clear